GFSSW_850_rhum_003.txt.gz
RH
35 34 35 38 39 39 37 33 31 24 17 15 14 14 18 23 21 22 17 8 12 22 17 13 18 21 20 21 19 15 23 21 14 13 9 14 17 33 43 44 42 40 49 63 77
37 36 37 40 42 40 38 35 30 21 17 16 16 15 23 24 22 15 5 7 16 22 19 13 16 20 23 21 19 19 24 18 12 10 8 10 26 33 42 45 51 44 52 67 56
39 40 40 42 43 41 39 34 27 20 18 17 16 23 25 24 25 11 16 20 20 23 20 19 17 16 21 19 16 15 13 8 8 10 12 11 16 19 45 51 44 44 50 55 51
42 42 41 44 44 40 37 33 27 22 18 18 20 23 27 26 32 16 19 18 21 24 16 16 16 20 23 22 16 10 9 7 8 9 6 9 10 24 22 35 33 35 41 49 50
43 42 41 45 42 40 36 32 25 21 19 20 22 26 26 28 19 17 14 15 14 12 10 13 15 17 17 14 14 7 7 8 7 7 6 7 8 11 14 26 40 37 40 40 40
41 40 41 43 41 37 32 27 23 21 19 23 25 27 28 31 18 16 15 15 15 15 14 15 11 13 15 12 8 7 8 8 10 9 6 8 10 11 15 38 44 41 40 39 39
41 38 41 42 40 32 27 24 21 20 24 26 27 28 26 18 17 16 13 12 12 12 14 14 14 16 12 13 7 8 10 10 9 10 10 11 14 13 17 45 45 43 42 41 39
44 38 39 38 34 27 25 22 21 24 26 28 28 26 19 15 17 13 12 12 11 13 12 10 11 12 9 9 10 14 15 15 12 13 14 11 15 14 18 46 48 47 50 50 44
46 37 37 34 28 24 24 23 25 26 28 31 28 27 15 16 15 12 12 12 10 13 12 10 11 11 10 15 17 19 18 16 15 15 15 14 18 19 15 45 51 53 52 52 52
44 34 33 30 25 23 24 25 26 29 32 31 39 27 13 15 10 12 10 12 13 13 10 11 13 20 23 16 15 15 17 18 18 16 19 18 33 43 30 24 41 44 41 42 46
39 32 29 27 24 24 24 28 34 35 35 14 16 21 20 17 13 11 9 11 15 14 22 18 24 21 18 16 16 15 18 20 21 18 38 45 54 62 56 61 63 59 59 59 56
36 30 25 25 23 24 27 43 51 46 36 15 18 21 20 16 13 11 11 15 16 21 18 24 23 18 24 26 21 22 23 26 26 32 41 48 51 50 48 57 63 59 58 59 58
34 29 26 24 24 26 32 39 44 38 38 18 17 18 17 17 15 16 16 18 18 19 21 25 19 17 25 30 30 34 28 25 29 36 36 41 48 43 40 49 57 57 52 51 48
32 29 26 24 27 26 29 47 38 34 35 22 16 13 16 16 17 16 15 17 21 27 25 25 29 26 28 28 30 34 28 26 32 39 49 34 66 42 46 55 57 58 53 49 49
33 26 24 29 45 32 45 40 30 39 48 18 18 16 16 18 16 16 19 20 20 23 26 30 29 30 29 26 26 31 26 26 28 34 36 40 57 51 48 58 58 57 52 47 39
38 27 25 42 49 40 35 21 26 69 43 23 18 18 16 18 19 17 21 21 22 29 29 28 25 24 26 26 24 24 35 44 49 49 62 40 55 58 58 54 54 53 52 46 45
40 30 31 46 52 32 26 20 60 74 28 24 24 21 21 22 26 27 30 33 36 37 40 32 30 27 26 29 28 34 45 66 58 70 70 46 55 60 44 46 49 52 52 47 41
38 41 43 43 43 31 31 44 58 40 33 21 24 26 26 28 32 32 32 36 32 37 45 44 49 29 25 26 29 34 41 67 59 76 52 46 59 52 44 40 41 42 39 43 46
36 49 44 28 32 30 24 80 68 48 24 25 28 31 30 27 31 35 37 35 34 32 41 43 38 26 24 24 30 32 42 37 66 70 66 62 45 40 43 51 46 43 50 50 54
34 39 34 31 28 24 68 79 60 39 26 24 32 32 35 30 34 40 39 38 38 34 32 36 34 28 24 29 29 28 33 48 68 54 64 60 56 63 49 52 41 48 57 57 58
33 31 29 28 28 22 72 74 54 26 30 22 28 31 31 33 38 44 46 43 44 41 34 41 37 36 33 36 36 38 39 51 59 70 71 80 68 45 47 44 54 64 61 56 56
35 45 41 27 31 71 60 57 38 25 25 33 36 32 34 42 55 53 52 48 46 43 33 40 52 64 36 33 32 30 38 45 63 59 86 83 57 42 49 48 57 64 62 62 61
39 72 66 40 55 81 51 52 33 27 31 31 34 37 40 54 58 56 54 47 34 43 43 38 56 69 58 45 36 32 37 54 59 70 72 72 55 51 50 55 59 67 67 64 62
44 84 66 52 34 38 43 44 39 33 33 31 35 38 44 56 61 62 58 49 35 40 46 46 60 50 66 50 43 31 34 48 48 71 63 68 44 59 65 68 69 70 67 66 64
50 54 50 83 74 72 52 44 40 37 32 30 33 37 44 54 57 64 57 48 41 43 55 53 53 52 53 56 41 36 34 49 52 51 60 51 57 58 71 74 71 67 67 64 58
55 49 40 40 32 60 64 53 43 38 34 36 41 48 43 56 50 64 54 48 44 59 72 67 77 65 62 68 67 45 40 45 45 42 52 64 75 64 63 68 70 67 66 62 50
51 53 27 76 62 65 72 50 47 41 44 40 50 58 56 60 53 54 51 52 54 60 80 81 90 63 51 84 69 48 50 47 41 52 56 78 67 71 80 74 68 65 64 58 44

GFSSW_850_rhum_006.txt.gz
RH
31 32 35 36 38 40 41 40 37 32 26 17 14 16 17 17 22 19 15 12 10 22 15 13 14 16 22 23 21 16 25 23 22 29 26 18 27 44 46 47 45 44 62 60 70
32 36 38 39 41 43 43 43 38 32 24 17 17 19 19 23 22 18 9 10 11 20 19 14 18 22 22 22 21 21 27 20 14 17 31 24 29 38 46 48 49 50 64 67 68
34 38 40 40 44 46 46 43 38 31 24 20 20 19 23 26 25 11 8 15 16 18 21 20 17 20 24 21 19 19 20 12 10 14 17 20 22 32 48 50 48 58 70 78 68
37 42 40 41 44 48 46 42 36 30 23 20 20 24 26 28 31 18 18 20 18 23 22 22 19 20 24 22 17 14 12 9 14 13 13 22 16 39 31 31 35 32 50 71 52
42 43 38 40 43 47 44 38 32 27 23 22 22 27 28 31 20 18 15 15 18 19 19 18 18 18 23 22 14 12 9 10 9 9 10 12 17 30 19 36 38 44 52 53 50
42 40 37 39 43 46 40 34 29 24 22 22 27 30 31 45 18 18 15 15 16 15 18 19 13 12 18 13 15 12 8 9 11 8 7 10 11 11 14 39 42 42 45 47 46
42 43 36 39 42 41 37 31 25 23 23 27 28 32 33 18 17 16 14 13 15 14 16 15 13 15 17 13 8 8 9 10 10 11 11 10 13 13 26 46 42 43 49 55 60
46 46 36 39 39 36 32 26 23 24 27 29 32 34 23 15 16 16 12 12 13 12 13 16 15 17 18 10 13 14 16 14 11 13 15 10 14 20 48 44 49 47 47 49 52
48 46 37 38 36 31 27 23 26 27 29 33 37 37 21 15 14 13 12 12 13 14 14 15 15 14 11 16 18 19 19 16 14 15 16 15 25 45 38 54 58 56 54 52 51
47 43 36 36 32 28 26 28 28 30 34 39 47 39 13 16 12 12 12 10 14 13 14 14 14 20 23 16 20 16 17 17 17 18 46 44 66 67 51 52 60 56 54 54 55
48 39 34 35 29 29 27 30 36 43 40 18 19 20 17 18 11 13 12 11 15 14 21 20 25 23 18 17 14 15 16 18 20 28 54 65 68 66 69 66 65 64 61 58 53
45 35 32 28 27 28 29 39 53 47 39 16 17 20 20 21 15 14 12 15 16 22 20 25 24 19 25 26 24 24 28 33 34 38 53 56 57 52 54 63 67 67 68 64 62
42 31 30 27 29 29 33 40 48 47 42 21 20 19 18 17 16 14 14 18 19 20 24 26 21 22 26 30 31 34 28 28 40 47 47 48 55 54 49 61 63 62 61 57 51
38 30 33 27 32 30 30 42 48 43 38 25 16 15 17 17 18 17 17 18 23 27 27 31 29 27 29 29 31 31 29 34 48 47 55 41 73 48 52 60 61 60 57 52 48
34 31 32 31 37 38 50 33 36 41 48 20 17 15 17 19 16 19 22 19 23 26 28 32 29 31 30 27 28 32 30 32 31 38 40 44 65 55 57 64 64 62 57 52 46
32 34 36 47 50 51 28 27 32 66 49 21 19 17 19 20 21 21 22 20 23 33 33 31 27 27 27 29 26 30 38 46 51 51 59 44 54 62 68 61 61 58 56 51 49
36 35 33 52 55 32 26 26 59 72 28 25 23 20 23 29 31 29 33 37 34 38 42 33 32 28 27 30 30 40 45 65 59 70 71 50 54 52 50 53 53 55 53 53 51
46 42 40 54 41 30 30 39 48 44 36 22 26 25 28 29 32 34 33 38 34 38 48 44 46 29 25 28 32 34 44 66 58 79 62 48 60 53 45 40 42 44 48 54 56
44 46 57 34 29 29 27 69 62 52 27 28 29 30 32 30 33 37 38 37 36 34 42 43 37 27 25 27 30 34 45 41 70 68 68 66 49 45 56 55 49 49 53 58 63
45 57 38 27 27 26 60 69 62 49 31 26 31 32 36 33 37 40 39 41 38 39 34 39 35 31 26 30 32 31 38 44 67 54 64 64 59 66 58 61 58 60 57 61 62
55 42 40 31 27 26 61 65 60 41 33 24 32 36 34 34 41 45 43 44 45 42 37 36 39 37 32 37 38 39 41 56 60 70 68 81 68 52 54 57 58 59 56 60 61
48 45 41 31 35 66 53 59 47 30 30 35 34 31 34 45 52 51 49 46 48 47 35 42 54 62 35 33 37 33 38 42 58 46 86 84 58 49 55 48 47 61 63 63 61
37 64 56 33 59 82 47 48 43 31 33 33 37 38 46 56 58 56 56 46 36 42 42 42 57 71 51 38 35 34 47 55 59 72 72 77 57 57 62 64 61 68 66 64 59
37 88 75 55 30 41 37 38 42 34 34 34 42 42 50 58 63 64 58 49 40 47 49 42 58 49 58 44 45 35 45 48 46 70 64 71 40 58 67 74 76 73 67 64 61
39 69 65 88 77 51 38 43 43 38 34 33 37 39 48 56 59 63 58 48 46 51 61 48 53 52 60 61 46 36 35 54 48 47 53 47 53 43 67 75 75 69 67 65 64
49 51 51 59 51 68 65 50 46 39 39 36 40 49 44 57 46 64 55 46 38 65 68 63 70 59 63 71 67 47 42 45 50 47 58 54 56 64 65 64 72 69 67 66 62
53 46 40 75 72 75 79 57 50 44 48 45 45 55 51 55 54 56 52 58 59 63 75 71 87 56 44 76 60 50 46 50 47 48 52 66 51 77 80 74 72 68 66 62 59

GFSSW_850_rhum_009.txt.gz
RH
22 25 28 31 34 36 38 40 40 38 35 30 24 18 18 16 17 20 14 10 12 17 18 17 20 15 22 22 22 18 19 28 26 34 56 33 43 42 49 52 50 50 78 74 84
24 30 32 35 37 38 40 41 40 37 34 30 22 19 17 20 21 16 12 12 14 19 16 15 15 16 23 22 22 20 21 20 17 33 34 27 28 43 46 47 51 77 72 72 77
29 35 37 37 40 38 41 42 40 37 34 26 21 18 20 24 24 18 10 8 11 20 20 16 18 22 24 23 22 22 19 15 12 20 25 26 28 42 45 43 46 76 79 76 92
33 40 40 38 39 38 41 42 39 36 30 23 20 20 25 27 27 20 14 16 20 19 19 20 20 20 24 22 19 16 16 10 15 15 20 26 30 46 40 33 36 48 49 63 82
37 42 41 37 38 38 44 42 36 33 26 21 21 26 29 30 19 19 18 19 17 18 16 17 19 19 24 24 18 16 12 10 10 12 19 18 30 38 20 34 36 47 56 56 58
41 44 38 39 39 42 43 40 33 28 23 21 25 28 31 45 19 20 17 18 18 19 23 19 15 15 19 17 17 14 10 11 10 11 15 15 13 20 24 41 41 48 53 63 64
44 45 43 42 41 44 43 35 29 24 22 24 28 30 31 19 18 16 18 14 16 16 16 16 14 15 18 17 10 9 11 11 13 10 12 11 14 21 56 48 51 79 73 73 66
45 48 47 44 43 44 37 28 25 23 26 29 30 32 23 16 15 16 15 13 14 17 18 19 19 18 18 12 14 12 15 14 12 14 16 10 14 35 56 55 58 67 72 66 63
48 52 50 42 44 40 29 24 24 27 30 32 36 39 21 15 16 14 13 13 14 15 18 18 19 20 13 16 17 19 14 16 15 28 17 18 27 50 46 60 62 57 56 57 58
51 52 48 42 41 34 25 26 28 30 33 38 44 47 16 17 16 12 13 12 16 17 20 22 17 20 18 14 18 18 18 17 18 26 36 40 54 57 65 61 63 61 60 56 52
52 52 44 41 37 28 28 31 38 42 38 22 22 22 17 20 14 12 12 12 16 14 22 20 20 20 18 16 14 16 17 18 25 40 48 59 56 58 64 63 65 66 61 59 58
53 53 40 39 31 27 28 35 45 50 44 20 21 20 18 20 16 13 12 15 16 22 21 23 25 20 25 26 22 24 27 36 42 42 46 49 58 56 57 65 67 66 66 62 61
53 50 38 35 29 28 29 45 47 56 49 26 21 21 19 19 16 13 13 18 19 22 24 27 23 24 27 30 32 31 30 37 39 45 43 44 50 58 57 64 69 72 72 73 72
51 44 38 30 32 29 34 33 55 56 39 26 19 16 18 18 19 18 18 18 23 27 32 31 29 26 28 31 30 34 31 41 48 40 40 38 35 55 59 61 61 66 68 67 64
49 41 36 35 34 30 51 53 50 50 54 23 17 17 19 18 18 22 22 20 26 29 28 33 30 29 31 30 31 36 39 36 34 34 36 42 39 48 55 63 58 59 64 60 55
50 37 38 36 45 41 56 46 50 63 57 22 20 18 22 22 24 23 23 22 25 34 32 32 28 29 29 34 33 39 38 41 43 40 44 40 37 43 57 53 54 56 61 56 49
52 35 38 40 49 54 45 45 60 63 31 26 24 20 25 31 32 31 34 37 33 40 41 32 32 28 28 32 32 35 39 49 49 54 47 48 46 36 39 45 46 51 56 54 48
50 41 42 46 58 41 40 40 40 41 42 24 27 26 29 30 35 34 34 38 36 37 42 34 38 27 28 30 33 38 38 54 58 61 46 47 52 36 40 41 44 48 53 52 52
50 51 50 57 53 43 33 68 48 51 32 31 28 31 34 32 34 39 39 38 37 36 39 42 37 27 30 29 30 35 38 41 59 61 55 47 44 37 46 44 51 55 58 62 58
48 58 48 54 39 37 56 54 48 50 35 29 30 33 40 36 38 39 38 42 38 41 36 40 36 32 30 32 35 33 37 41 48 54 51 44 52 42 53 47 48 55 57 63 59
51 60 57 40 38 29 63 50 58 47 38 30 35 38 37 38 42 43 43 45 46 41 36 35 41 39 35 37 36 38 41 52 48 55 42 48 36 44 45 43 48 49 60 59 62
62 54 49 38 42 62 57 56 49 44 33 38 31 35 39 44 50 51 49 45 49 47 40 43 52 52 36 35 38 34 38 41 46 45 65 63 39 43 47 44 51 55 58 61 62
55 70 61 36 61 78 48 46 44 37 33 35 41 41 48 56 53 56 56 46 38 41 46 44 52 58 41 32 34 36 44 46 53 64 66 75 36 46 58 54 52 56 62 63 65
46 89 75 43 33 43 39 40 37 38 37 37 46 47 56 57 62 66 61 48 43 52 48 40 52 47 47 38 42 43 50 44 41 54 53 58 37 36 49 56 65 67 65 68 63
45 72 68 88 62 44 32 41 43 41 36 34 42 42 52 59 59 65 59 49 53 56 60 46 49 53 59 58 49 37 46 47 39 42 49 42 44 34 40 51 64 73 72 66 60
45 59 57 66 40 48 47 53 48 41 42 37 46 50 45 57 47 65 57 50 43 65 61 60 63 59 65 64 59 50 41 44 50 49 44 48 46 38 56 64 73 74 72 69 63
50 40 29 84 81 61 71 54 48 46 51 47 46 54 52 58 55 56 49 53 58 61 67 63 78 54 49 65 51 51 48 44 47 45 44 54 38 61 66 66 66 73 72 66 61

GFSSW_850_rhum_015.txt.gz
RH
19 20 20 23 23 28 27 27 31 36 37 34 32 26 18 14 14 16 20 19 16 11 21 25 22 23 16 12 10 12 11 10 12 25 32 23 21 27 32 36 54 43 40 61 85
20 20 23 24 25 32 32 27 30 38 38 32 30 23 16 15 16 19 20 16 12 12 21 21 20 16 13 12 11 9 9 9 19 50 28 24 25 28 30 33 41 47 51 67 79
20 22 26 27 30 34 33 28 32 38 38 31 27 19 16 17 50 25 22 16 12 14 19 15 14 13 12 10 11 9 12 12 23 17 22 24 26 24 31 56 37 47 60 65 79
22 26 30 31 34 36 34 30 34 38 34 28 23 18 16 23 29 24 16 8 12 17 19 14 12 12 12 11 10 12 10 12 18 15 15 16 18 23 57 69 62 44 57 58 68
24 29 33 35 40 38 35 32 36 36 31 25 20 18 22 59 32 19 13 10 13 20 19 13 13 12 11 9 10 13 12 13 16 19 18 23 37 21 28 28 36 54 61 55 59
26 30 38 40 42 42 36 34 37 32 28 22 19 22 35 40 22 26 18 13 23 24 16 14 12 10 9 10 11 11 12 10 13 15 17 19 17 16 24 27 38 44 40 42 43
26 32 42 43 46 44 38 35 35 30 25 20 19 27 53 32 23 32 22 22 23 18 15 16 15 14 14 13 12 10 10 11 14 15 16 19 12 19 28 29 34 34 36 39 38
28 36 45 46 48 47 36 34 31 26 22 20 26 31 48 27 24 27 30 27 24 21 19 21 19 17 17 13 11 10 9 15 13 14 14 13 14 19 24 27 29 31 35 38 40
29 38 46 49 48 47 36 32 27 24 22 26 32 59 32 20 20 18 22 20 26 24 22 22 22 19 16 15 12 10 12 12 14 11 13 10 13 20 22 26 28 33 39 41 42
31 41 47 52 48 44 35 30 25 26 27 29 38 64 29 17 18 15 19 20 23 25 25 22 19 18 17 14 15 13 11 10 12 11 9 7 14 18 21 21 28 30 35 39 42
33 47 49 52 50 41 35 28 39 62 38 34 26 24 18 18 18 14 14 17 21 20 17 19 18 17 13 12 10 9 9 8 8 10 8 9 14 14 21 21 23 24 29 34 38
36 50 52 52 49 41 36 55 41 60 40 19 28 25 24 22 17 12 14 14 16 16 16 18 23 13 10 10 9 9 10 12 12 12 16 11 13 15 19 20 23 24 26 29 37
40 53 54 53 48 38 31 39 56 60 44 25 24 23 18 21 14 12 12 13 13 15 20 23 15 13 13 10 10 11 10 15 14 15 15 13 17 22 20 21 29 28 28 31 40
46 56 56 54 45 51 41 24 35 43 38 21 20 18 18 16 14 14 13 13 12 15 15 29 16 14 12 12 12 17 14 13 14 19 20 14 18 20 24 26 27 31 32 36 41
49 58 56 56 91 58 62 63 58 67 45 15 15 17 15 14 11 15 16 14 14 14 16 21 17 15 14 17 17 26 17 16 15 16 19 16 17 43 24 24 27 30 33 38 46
51 61 61 60 43 63 71 91 78 58 38 18 14 14 16 15 13 12 14 14 15 15 14 30 17 15 16 19 17 19 20 20 17 16 26 15 18 21 24 21 24 30 37 43 48
55 62 60 50 58 72 61 80 55 45 17 15 15 13 15 14 15 15 15 15 14 21 20 17 16 18 18 20 19 17 20 25 23 26 28 18 19 16 14 18 19 30 37 43 45
60 67 60 59 78 79 92 54 46 22 19 12 12 14 16 14 14 15 13 14 12 16 22 19 29 19 18 17 18 20 17 25 28 27 18 21 21 14 17 16 19 28 35 41 41
68 79 67 44 49 77 70 66 39 15 15 15 13 16 17 15 15 17 17 14 13 14 19 17 22 18 19 18 16 18 25 18 27 30 32 18 12 14 21 21 22 28 34 38 38
83 82 63 44 43 91 57 46 25 18 16 14 17 15 20 19 17 16 19 16 20 20 19 16 22 18 22 21 21 22 18 25 22 34 34 16 16 12 23 23 24 27 32 35 36
92 74 42 42 50 74 54 36 20 22 21 18 15 15 16 18 17 16 17 20 21 20 18 14 18 26 24 24 18 24 22 20 22 29 32 23 16 15 15 20 23 25 30 33 35
83 58 95 47 58 51 45 27 19 24 29 20 20 14 17 17 20 17 16 15 22 20 19 16 21 34 25 22 21 21 20 21 30 25 28 40 22 15 18 19 22 24 27 31 34
74 61 99 61 70 70 32 24 21 25 24 24 20 16 15 17 21 18 17 38 36 27 20 25 24 36 30 26 22 21 19 19 18 32 26 49 22 16 18 20 20 23 26 31 33
55 62 88 87 50 38 34 26 28 28 23 21 18 21 24 26 23 27 28 35 37 29 36 30 23 27 34 25 21 29 20 19 21 31 26 24 15 13 15 17 16 21 24 28 33
47 41 47 74 52 35 28 26 23 29 26 26 28 23 23 28 30 32 30 37 38 43 32 30 34 25 24 25 22 20 19 20 20 19 26 19 11 9 9 11 13 17 24 25 34
45 35 40 46 40 34 36 26 22 23 26 30 26 20 20 27 28 27 32 33 34 38 35 34 38 38 44 28 27 26 20 16 17 18 15 14 14 10 13 13 17 19 26 28 34
56 42 38 50 42 35 33 23 22 23 38 26 22 25 27 34 37 36 34 30 28 37 40 41 51 46 35 39 38 58 38 22 17 16 17 22 16 14 19 19 20 21 28 31 34

GFSSW_850_rhum_021.txt.gz
RH
24 24 21 19 19 20 21 23 26 28 24 24 28 28 22 16 11 9 8 14 12 16 12 16 17 11 23 23 19 14 18 17 22 58 56 53 54 51 41 40 46 61 65 70 53
26 24 23 21 20 22 24 25 28 29 25 26 28 26 18 12 11 22 23 23 14 13 9 17 27 14 20 19 17 16 20 17 42 57 59 49 41 41 45 54 66 45 87 65 69
29 23 25 22 22 24 26 28 30 28 26 27 27 23 14 12 38 30 19 14 12 11 9 21 25 18 18 18 17 14 16 39 42 44 48 55 48 38 37 69 57 41 54 81 91
35 24 25 23 24 26 28 32 32 29 27 28 25 18 14 17 37 29 17 12 10 10 14 20 20 19 18 17 12 15 12 19 38 40 43 56 40 37 34 52 50 42 59 73 70
44 28 24 24 25 27 30 34 34 30 28 27 23 17 15 39 27 27 17 15 9 14 18 20 22 17 18 14 13 13 13 32 27 29 33 34 33 35 38 45 73 71 66 64 66
54 38 26 25 27 31 35 35 34 30 27 25 21 18 24 60 29 27 18 16 12 14 17 20 20 12 11 13 14 10 11 32 39 40 33 28 34 33 33 47 56 60 61 56 52
66 46 28 26 28 33 38 37 35 29 25 22 21 22 30 16 27 27 29 15 17 17 17 15 15 18 17 22 16 12 14 15 34 41 37 23 43 46 33 47 49 53 52 50 40
81 53 33 28 30 37 41 39 32 26 22 20 23 31 27 21 21 22 28 23 20 20 21 18 19 18 17 17 18 14 15 21 17 28 33 25 41 38 35 50 48 44 40 43 40
93 61 41 28 32 41 43 40 29 23 21 20 35 78 41 30 22 17 24 25 23 22 18 19 20 19 19 25 29 16 20 19 20 16 23 22 28 38 43 50 42 37 34 36 35
95 71 51 30 33 44 46 37 25 21 22 24 31 58 19 21 16 17 18 21 22 23 22 21 20 27 28 29 34 22 18 19 23 18 17 20 24 44 44 34 35 40 38 34 34
99 80 54 33 36 47 48 36 56 63 48 20 23 22 23 20 18 15 16 18 21 22 33 23 29 34 26 20 21 17 18 18 16 14 18 22 26 30 48 48 43 45 55 36 39
100 87 59 35 40 52 52 37 55 58 62 48 48 26 27 24 19 16 16 18 23 31 34 26 31 22 20 20 23 21 22 21 14 12 11 20 23 23 51 60 50 58 36 38 41
99 95 64 37 45 52 49 31 33 50 62 42 34 28 21 22 20 17 13 14 22 30 24 30 32 25 26 29 23 20 25 20 16 10 9 18 19 20 20 19 38 33 28 32 44
97 99 68 44 52 72 54 26 19 40 82 38 34 20 17 19 20 14 14 13 20 25 22 26 25 26 28 28 18 21 20 23 19 22 25 24 37 37 26 23 23 37 47 46 42
91 100 72 45 65 72 66 54 51 63 92 25 25 17 17 19 15 13 13 13 21 27 26 33 26 30 32 24 18 23 19 20 23 24 34 31 32 37 36 24 23 26 25 35 43
96 100 83 47 59 54 74 83 72 85 87 28 20 20 20 18 18 14 13 13 19 27 25 29 19 24 30 22 15 20 22 27 31 33 55 36 43 50 42 25 30 26 24 28 45
95 100 85 47 57 71 56 81 92 98 28 24 23 20 21 22 18 16 20 20 23 34 35 26 23 26 26 28 22 24 27 49 50 73 67 43 42 42 36 29 33 31 23 30 42
90 100 89 50 58 91 80 95 98 46 39 17 21 21 24 19 19 18 21 25 20 21 36 36 47 39 31 23 28 30 32 59 62 90 61 49 49 34 25 27 29 25 27 35 47
100 100 98 49 57 98 99 96 76 48 24 26 18 23 23 18 18 20 21 25 19 17 38 49 43 35 32 30 23 23 33 34 71 72 85 56 31 24 31 41 43 41 39 48 50
100 100 97 53 58 98 99 78 62 35 30 22 29 21 26 22 19 21 23 18 18 17 38 55 50 47 41 36 22 21 22 40 55 60 52 34 28 42 32 32 36 53 44 47 48
100 98 89 68 66 99 87 76 56 39 31 30 27 22 20 24 22 23 23 17 22 33 38 51 55 59 45 36 29 28 28 24 32 58 65 73 42 19 24 27 31 43 43 43 45
98 92 63 57 96 82 79 63 48 41 37 36 21 21 22 25 26 24 25 35 19 24 39 48 56 68 40 25 20 20 36 43 64 38 69 74 51 20 18 20 22 25 38 41 43
97 81 81 47 76 87 58 60 54 46 43 34 27 23 22 24 35 23 34 36 26 26 28 33 35 60 39 33 32 25 23 21 41 63 52 66 52 20 16 15 16 20 22 38 40
91 86 99 92 42 58 57 56 62 44 42 33 28 29 28 26 32 32 48 36 33 38 29 31 35 43 57 41 32 33 28 26 31 68 56 63 36 24 23 23 20 17 19 29 36
94 63 73 95 88 51 51 51 56 55 37 30 32 31 32 25 24 30 48 46 38 37 32 39 42 30 36 37 31 27 29 30 27 36 47 40 34 28 18 22 20 18 18 19 26
92 59 68 72 70 67 55 56 50 42 38 35 34 30 28 28 35 34 42 46 45 43 37 39 62 44 42 39 42 40 36 32 32 27 23 24 27 19 20 18 18 17 20 22 22
96 59 61 73 75 69 52 53 51 39 33 23 34 34 34 37 33 38 34 47 44 53 51 53 69 68 58 49 44 51 35 35 33 29 26 31 26 24 29 29 25 24 23 24 25

GFSSW_850_rhum_024.txt.gz
RH
23 23 23 24 22 20 19 21 23 24 26 22 25 26 22 16 8 10 20 22 14 13 11 8 14 11 19 24 23 22 22 23 17 52 49 49 58 45 45 50 63 71 76 98 100
35 24 23 24 23 21 20 22 25 27 27 24 26 23 19 12 15 27 20 19 24 13 8 9 20 12 16 20 19 20 24 21 31 56 51 48 53 48 50 56 73 100 100 100 92
49 35 25 24 23 21 22 23 28 30 28 27 25 21 16 10 25 29 20 15 11 10 9 16 27 26 19 19 19 18 22 31 43 45 45 47 48 41 60 73 54 98 98 99 87
74 47 35 24 23 22 24 27 32 33 29 28 23 18 14 12 37 23 21 14 9 9 12 16 22 23 21 20 17 18 14 26 41 41 46 50 43 39 40 52 49 79 92 92 84
87 70 40 23 24 23 25 30 35 35 30 26 22 17 14 20 21 28 17 15 8 14 17 18 26 24 20 16 15 17 22 30 40 42 40 42 38 44 62 45 63 89 85 84 75
93 87 51 26 24 24 27 34 38 36 29 26 20 17 18 43 31 30 27 15 11 16 18 21 19 19 16 15 16 18 28 35 35 30 31 34 40 39 56 54 66 72 83 94 75
91 92 70 34 24 24 29 38 40 36 29 24 19 18 20 13 28 25 28 15 14 14 16 19 21 21 18 21 18 16 32 41 45 37 34 32 35 44 52 54 64 57 62 77 69
67 92 84 44 28 25 30 40 39 34 27 23 20 25 16 15 29 24 26 25 18 18 18 18 20 20 16 18 20 15 18 41 41 42 33 31 37 37 50 60 65 58 57 60 66
74 88 90 58 33 26 31 41 38 31 26 24 24 47 23 24 21 18 22 24 25 23 22 20 21 20 18 27 31 25 21 22 37 37 34 31 34 35 45 54 59 58 56 50 62
78 73 91 72 38 27 31 41 36 29 26 26 30 40 14 23 19 17 20 21 26 24 22 22 21 30 31 32 34 24 19 19 22 20 35 26 30 52 43 50 48 47 46 49 61
74 83 90 80 42 28 33 42 45 65 56 19 21 16 19 22 19 18 16 19 23 23 29 26 32 35 29 29 25 22 27 21 19 18 21 26 54 54 50 50 43 42 42 43 50
60 80 89 86 47 30 43 46 59 54 62 44 41 53 25 29 27 19 16 19 23 31 34 33 36 28 26 24 27 29 27 26 22 17 16 30 47 56 52 42 34 38 40 42 44
61 81 81 89 51 31 46 50 60 50 60 43 31 32 20 22 24 21 17 18 27 32 31 32 27 26 25 25 32 31 26 27 22 12 19 22 27 59 51 50 40 39 37 39 37
54 75 82 93 49 37 67 73 32 26 80 54 42 28 24 19 22 17 17 16 23 32 30 28 25 26 28 31 30 34 22 22 20 24 22 23 35 36 40 50 50 47 46 44 42
66 98 68 94 41 59 77 75 49 57 72 30 38 21 15 19 18 14 15 15 25 28 27 30 27 28 30 29 23 25 21 21 22 30 30 30 33 31 34 34 48 49 50 44 39
83 99 94 93 54 43 73 74 67 85 84 42 26 23 23 20 20 17 12 14 20 27 26 28 23 24 27 25 22 21 25 36 42 43 58 47 38 39 41 26 28 37 47 43 38
93 98 98 91 68 31 59 72 92 90 38 34 27 25 25 26 25 22 18 22 32 34 36 27 25 26 27 28 26 25 33 45 45 69 61 46 46 40 32 33 29 28 30 32 40
100 98 99 94 75 54 72 92 93 61 55 29 26 26 29 26 26 22 23 25 22 26 40 38 42 35 32 29 32 34 34 54 43 74 53 52 58 38 27 26 25 22 30 38 52
99 96 100 97 76 80 91 95 74 66 34 30 24 31 30 26 22 24 27 28 22 23 32 48 44 42 40 34 35 38 34 35 70 79 76 62 42 30 34 40 34 42 37 50 54
96 98 98 92 88 78 97 76 66 49 38 27 32 29 34 28 26 25 26 24 23 21 31 43 45 44 40 31 33 37 26 40 59 65 68 41 38 45 34 32 38 50 43 49 57
98 98 95 96 96 91 89 73 58 44 43 43 38 32 27 28 26 30 24 19 23 39 38 50 40 49 42 40 39 35 31 30 42 58 58 68 44 26 33 33 32 41 40 44 57
99 93 91 91 91 76 85 66 51 49 45 52 42 42 29 29 30 30 28 24 21 35 40 46 54 76 53 32 32 33 33 38 62 38 76 76 49 26 26 28 30 33 39 36 51
95 90 85 78 84 90 68 63 56 48 50 49 43 37 24 31 30 31 32 36 30 32 40 42 46 60 46 30 36 30 28 35 48 64 56 67 50 25 22 19 21 28 36 34 47
90 94 99 99 67 57 71 72 70 47 51 50 49 42 32 28 32 40 44 37 37 35 28 32 42 41 52 35 34 34 30 31 42 69 58 63 36 29 26 25 20 21 26 38 44
96 71 70 90 87 60 56 62 70 59 48 41 47 48 46 36 38 33 48 44 42 36 37 42 41 37 37 38 34 32 32 32 35 38 47 39 42 29 23 23 22 18 23 29 43
82 74 70 78 68 71 59 59 56 50 46 45 51 47 42 33 37 43 51 52 44 42 36 46 49 45 41 44 40 36 35 36 35 30 37 31 33 26 24 21 24 23 24 25 29
98 79 66 65 75 79 63 55 46 41 44 38 39 43 42 36 33 29 32 34 46 50 54 54 70 68 55 54 44 61 41 35 33 31 31 36 30 35 38 35 30 26 25 27 32

GFSSW_850_rhum_030.txt.gz
RH
50 43 33 26 20 19 21 20 19 19 22 23 21 20 17 13 9 19 24 19 22 17 11 11 14 13 23 26 25 22 32 30 22 27 37 56 57 56 63 74 98 97 87 99 100
69 64 60 47 28 20 20 20 20 21 25 24 21 20 17 12 11 28 31 22 20 20 13 13 16 18 23 24 25 26 32 26 20 23 47 51 52 54 67 93 98 100 100 100 99
90 81 75 72 50 25 20 21 22 23 27 27 22 20 17 12 14 30 29 22 20 16 10 25 18 18 18 21 22 23 27 22 19 37 48 49 50 52 66 72 93 96 98 100 100
98 94 87 80 76 41 21 21 23 25 29 28 24 20 16 11 28 25 24 16 15 11 19 26 25 23 22 23 20 23 20 20 29 43 48 49 44 58 62 72 79 90 97 98 100
71 82 89 86 80 68 27 22 23 27 31 30 25 21 16 13 13 31 22 15 11 10 19 21 22 26 26 22 19 21 18 24 27 45 47 46 58 78 100 75 58 92 86 80 91
74 71 86 75 75 82 44 24 23 27 32 32 25 23 19 18 32 31 23 15 12 16 18 20 23 25 26 25 19 18 24 37 44 47 44 59 64 59 99 94 79 80 68 53 66
66 71 68 74 63 85 66 29 25 27 34 33 25 24 20 10 19 33 26 22 14 17 19 19 23 24 23 23 21 28 38 41 47 41 38 43 47 68 99 91 64 69 43 43 54
45 65 62 69 68 79 81 37 26 27 33 33 25 24 17 8 16 28 25 25 16 15 17 20 23 24 24 21 23 21 28 30 50 43 41 32 49 74 100 98 82 61 57 56 62
10 48 53 83 77 71 82 46 24 26 32 33 27 25 16 13 13 20 23 26 24 23 23 23 24 23 23 28 29 29 28 24 42 43 42 35 42 64 99 99 94 83 67 59 65
4 13 68 84 93 66 84 51 25 31 37 35 43 31 11 21 27 27 26 24 25 26 25 25 24 33 36 33 33 30 30 27 27 36 42 42 39 63 74 82 92 94 80 71 66
4 4 38 95 98 72 87 38 39 57 60 39 19 17 10 19 24 22 24 22 26 26 31 31 36 36 30 30 27 27 30 34 28 23 44 51 46 59 65 71 79 84 83 82 68
9 5 44 92 100 86 92 38 52 61 70 34 34 41 35 37 40 25 23 24 29 36 34 37 41 32 29 32 31 31 31 33 27 21 39 44 49 53 68 68 70 72 75 69 66
20 6 50 97 100 80 88 44 52 78 72 42 32 37 28 30 31 25 22 22 29 34 38 38 26 28 29 28 27 30 32 34 31 20 28 34 39 59 56 56 60 62 60 62 57
55 14 70 98 98 76 68 75 78 64 59 45 52 38 34 26 29 20 22 21 29 31 39 37 29 28 28 28 29 33 28 33 29 24 30 28 35 34 61 63 57 53 54 55 57
88 25 82 98 92 64 74 70 50 62 54 26 51 35 32 25 22 23 22 20 30 33 33 33 31 31 31 30 28 32 27 30 28 34 36 38 39 33 56 65 58 53 49 48 48
98 64 87 100 98 61 78 76 73 74 52 26 39 43 34 24 22 24 22 19 20 30 31 31 26 28 28 27 27 26 28 33 43 45 53 41 43 44 49 50 46 46 48 46 43
97 97 92 100 99 77 79 71 98 90 31 30 46 35 31 32 27 23 28 32 33 37 38 30 29 28 29 28 29 30 35 42 39 62 57 47 52 45 30 33 40 45 42 38 37
98 100 90 99 99 95 93 91 97 62 46 42 34 34 33 28 28 28 28 36 28 30 44 40 39 36 30 29 32 33 36 53 34 62 43 51 50 33 31 29 30 27 26 28 33
95 99 91 97 100 100 90 98 74 62 49 39 29 34 33 29 29 28 33 35 31 32 32 45 38 38 38 34 30 36 40 36 70 80 74 55 44 30 29 39 44 39 33 32 32
95 95 93 96 96 100 94 80 64 47 48 50 38 35 43 38 31 33 38 31 27 31 29 37 33 39 37 37 35 32 41 49 63 53 59 52 46 40 30 34 44 50 45 35 36
98 97 82 88 97 99 91 71 61 49 47 56 61 49 38 39 35 38 36 25 28 28 30 41 32 32 41 41 35 41 40 46 50 61 58 67 49 37 28 30 32 39 36 34 34
100 93 73 85 98 84 82 67 51 53 50 54 54 62 49 38 38 37 35 29 22 36 36 40 42 52 37 34 33 34 41 47 66 46 79 78 58 30 28 30 28 24 24 25 31
96 88 82 76 88 87 68 66 59 53 53 60 61 57 44 36 33 37 36 26 29 36 41 45 45 57 43 36 37 38 40 42 54 66 64 70 52 27 31 28 21 20 19 23 28
96 98 91 94 65 64 74 69 67 56 55 51 58 55 49 48 42 34 36 43 36 32 31 32 52 43 43 38 40 42 41 50 48 72 61 66 41 31 28 30 27 19 18 18 23
93 90 72 94 88 72 62 63 69 61 54 56 61 64 55 54 41 46 48 51 45 48 44 39 42 46 40 33 37 37 35 50 46 45 51 45 48 37 34 32 27 23 20 20 24
99 80 64 71 71 73 71 65 66 58 58 60 64 58 63 65 48 38 51 52 48 50 47 49 48 42 44 46 43 41 40 42 44 42 44 42 42 36 30 31 32 28 35 41 44
98 87 86 66 74 73 71 63 61 58 54 50 53 54 61 50 40 38 37 44 48 54 59 52 68 63 51 57 46 61 50 45 44 41 40 48 41 35 39 42 43 39 42 46 44

GFSSW_850_rhum_036.txt.gz
RH
100 99 97 86 82 79 70 41 21 19 19 19 22 23 19 13 10 21 29 26 17 17 12 19 21 28 23 21 22 19 14 14 16 18 19 32 36 54 63 63 72 85 78 94 99
99 99 100 100 97 90 82 73 40 21 20 20 23 24 19 13 10 28 30 26 16 17 14 20 21 20 17 18 19 16 14 13 12 12 15 29 35 46 53 56 73 99 99 99 100
72 72 95 98 99 98 94 83 73 32 21 20 24 24 19 14 12 32 28 22 15 13 14 23 17 16 16 18 17 16 14 13 12 15 17 26 36 46 49 48 53 95 100 100 100
65 62 63 57 83 88 91 79 80 60 26 21 23 27 20 14 16 26 29 17 14 10 19 21 19 17 15 16 17 18 15 16 15 24 28 29 38 42 52 71 72 98 98 99 100
30 43 55 66 60 57 88 72 68 76 40 24 23 30 23 30 14 23 25 14 12 17 26 24 22 19 16 17 18 18 16 18 22 25 36 40 39 44 63 76 98 99 100 99 100
6 7 28 55 69 64 55 59 56 77 57 28 24 30 36 25 10 32 18 13 12 20 24 24 23 24 21 20 18 18 21 30 29 36 40 38 43 46 65 80 97 90 93 93 100
6 5 7 22 52 65 69 56 45 72 71 36 25 32 36 28 10 34 17 16 12 23 22 22 26 23 22 19 21 20 28 22 29 36 36 37 35 42 59 70 82 67 72 88 90
7 6 6 6 14 42 48 43 54 62 72 50 25 38 42 16 11 28 27 20 16 18 20 23 22 26 23 22 18 18 21 31 30 30 33 37 35 50 54 56 55 63 71 71 86
10 9 7 6 7 25 40 32 54 53 65 43 29 40 31 16 13 15 33 33 21 17 18 23 26 23 22 16 17 17 19 21 30 26 31 32 29 44 57 48 56 51 54 62 75
22 19 11 6 6 12 20 40 49 53 48 44 50 48 26 16 22 13 28 31 28 25 26 27 24 20 16 15 20 20 19 20 26 29 30 28 24 41 58 52 50 51 48 51 57
77 32 29 12 6 12 18 62 75 66 62 43 38 36 18 26 29 34 24 27 30 28 24 26 22 20 14 14 18 17 18 18 17 19 24 20 20 33 53 56 54 55 53 47 49
99 84 50 30 12 19 26 89 79 69 55 46 26 41 31 30 32 33 33 30 29 26 24 27 24 16 16 18 22 22 19 19 18 19 22 20 19 23 41 55 56 52 54 54 53
98 99 92 49 29 43 44 66 66 78 69 41 45 37 37 37 30 24 34 28 25 24 26 23 21 22 22 23 24 23 20 20 22 20 20 20 21 28 31 41 50 51 47 47 48
93 98 100 75 50 79 75 39 55 82 59 24 36 39 41 31 32 24 30 25 23 24 23 24 21 24 24 22 22 23 19 22 23 22 20 21 20 21 24 34 37 42 44 46 44
100 94 98 98 100 94 82 67 61 88 38 20 39 43 44 25 20 26 25 24 22 23 26 23 24 25 25 21 20 21 23 24 23 22 25 23 19 19 25 27 28 35 38 39 40
88 100 93 98 98 81 86 81 87 66 38 21 37 44 42 34 21 23 26 24 20 21 23 19 22 20 18 21 20 23 23 23 26 25 30 22 23 18 18 16 15 19 31 36 39
70 98 99 97 89 98 89 96 70 56 23 19 36 39 31 29 23 21 23 26 23 29 29 23 22 19 22 23 24 23 23 29 29 31 32 30 29 18 14 14 16 17 18 28 35
61 82 96 87 90 99 98 96 53 19 24 26 31 34 34 22 22 23 22 25 19 18 21 25 29 21 20 22 22 23 22 29 37 32 23 33 26 18 15 17 20 24 23 23 29
62 75 99 84 71 99 99 88 30 19 23 19 24 36 37 25 20 24 23 22 19 19 24 26 22 22 24 21 20 27 28 22 35 48 34 23 21 16 14 17 20 22 28 26 25
75 89 100 98 72 96 95 69 30 18 24 27 26 22 35 29 24 24 26 20 19 18 16 22 25 26 31 28 29 27 22 32 32 41 39 25 25 18 16 15 16 16 17 24 31
82 99 97 96 83 100 96 58 36 22 30 32 31 22 26 32 23 24 27 25 20 21 16 17 22 35 34 32 25 32 30 30 28 32 35 34 25 16 16 15 16 16 20 22 25
94 97 96 96 93 92 84 51 34 28 35 38 38 33 26 29 30 24 25 22 21 18 26 19 23 30 26 25 25 20 21 25 34 32 36 44 30 15 16 18 19 20 21 24 28
95 96 93 97 90 87 55 51 41 37 31 40 41 40 41 38 36 29 24 24 24 22 22 24 27 33 28 28 28 25 23 22 27 35 34 52 30 17 19 19 18 19 19 22 29
90 98 100 100 64 54 53 51 55 42 36 32 36 38 47 46 40 34 30 35 31 21 23 26 22 27 32 23 18 30 24 23 25 36 32 34 23 18 18 17 16 20 22 22 23
98 90 95 95 81 48 44 35 52 54 38 38 45 42 43 50 44 43 35 43 39 38 26 29 26 24 19 17 16 18 18 22 26 25 29 27 24 20 16 17 16 23 24 27 29
96 81 78 54 70 51 45 44 47 47 36 43 47 43 40 46 37 47 48 45 36 43 32 29 29 25 29 20 23 23 20 18 24 22 23 24 23 16 17 22 22 25 31 38 46
87 69 62 59 66 59 55 44 41 39 40 30 34 41 49 51 47 50 53 48 40 42 40 39 37 39 35 36 36 46 32 22 23 23 27 28 21 15 18 21 24 29 39 46 56